GEFSMW_con_prob3kmehi_150.txt.gz
EHI
68 72 77 78 77 74 68 63 59 53 42 33 30 29 23 17 14 12 11 10 7 4 1 0 0 0 0 0 0 0 0 0 0 0 0 0 0 0 0 0 0 0 0
71 74 76 74 73 71 68 64 60 54 45 35 31 29 24 18 15 14 13 12 8 4 1 0 0 0 0 0 0 0 0 0 0 0 0 0 0 0 0 0 0 0 0
67 70 70 66 63 63 63 61 59 55 47 38 32 30 25 20 16 14 14 13 9 5 1 0 0 0 0 0 0 0 0 0 0 0 0 0 0 0 0 0 0 0 0
56 58 58 56 55 54 55 55 55 53 47 40 35 32 28 23 19 15 13 11 9 5 2 0 0 0 0 0 0 0 0 0 0 0 0 0 0 0 0 0 0 0 0
45 45 46 48 49 50 50 50 50 48 44 39 35 30 26 22 20 17 12 9 7 5 2 1 0 0 0 0 0 0 0 0 0 0 0 0 0 0 0 0 0 0 0
37 38 39 41 44 46 48 47 45 41 38 34 31 25 19 17 18 17 11 8 6 4 2 1 1 0 0 0 0 0 0 0 0 0 0 0 0 0 0 0 0 0 0
33 34 35 35 36 39 42 41 39 34 29 27 25 20 14 12 14 14 9 6 4 3 2 2 1 0 0 0 0 0 0 0 0 0 0 0 0 0 0 0 0 0 0
28 29 30 30 29 31 35 35 32 26 22 21 19 16 11 8 9 8 7 4 2 2 2 2 2 1 0 0 0 0 0 0 0 0 0 0 0 0 0 0 0 0 0
22 23 24 23 22 23 28 30 26 20 16 14 13 11 9 7 5 5 5 3 1 1 1 2 2 1 0 0 0 0 0 0 0 0 0 0 0 0 0 0 0 0 0
20 20 19 18 18 21 23 23 21 16 11 8 7 7 6 5 4 3 3 2 0 0 0 1 2 1 0 0 0 0 0 0 0 0 0 0 0 0 0 0 0 0 0
19 18 17 17 19 20 20 18 15 11 7 5 5 4 3 2 1 2 2 1 0 0 0 1 2 1 0 0 0 0 0 0 0 0 0 0 0 0 0 0 0 0 0
14 16 17 17 18 18 16 14 10 7 5 4 3 2 1 0 0 1 1 0 0 0 0 1 2 1 0 0 0 0 0 0 0 0 0 0 0 0 0 0 0 0 0
10 14 17 15 13 13 11 10 8 6 6 5 3 2 0 0 0 0 0 0 0 0 0 1 1 0 0 0 0 0 0 0 0 0 0 0 0 0 0 0 0 0 0
10 13 14 11 9 9 9 8 7 7 6 6 4 2 1 0 0 0 0 0 0 0 0 0 0 0 0 0 0 0 0 0 0 0 0 0 0 0 0 0 0 0 0
13 13 11 9 8 9 9 7 6 5 4 5 5 3 2 1 0 0 0 0 0 0 0 0 0 0 0 0 0 0 0 0 0 0 0 0 0 0 0 0 0 0 0
14 12 9 8 8 9 8 6 4 2 2 3 4 4 2 1 0 0 0 0 0 0 0 0 0 0 0 0 0 0 0 0 0 0 0 0 0 0 0 0 0 0 0
14 12 9 7 7 9 8 5 3 2 2 3 3 3 2 0 0 0 0 0 0 0 0 0 0 0 0 0 0 0 0 0 0 0 0 0 0 0 0 0 0 0 0
16 15 12 8 7 8 8 6 5 5 5 4 3 2 1 0 0 0 1 0 0 0 0 1 1 0 0 0 0 0 0 0 0 0 0 0 0 0 0 0 0 0 0
17 18 15 11 8 7 9 10 8 8 7 5 4 3 2 1 1 1 1 0 0 1 1 2 2 1 0 0 0 0 0 0 0 0 0 0 0 0 0 0 0 0 0
14 15 14 11 8 7 11 12 10 8 7 6 5 4 3 2 2 2 1 1 1 1 2 2 2 1 0 0 0 0 0 0 0 0 0 0 0 0 0 0 0 0 0
9 10 10 9 8 8 11 12 10 8 7 6 6 5 4 3 3 3 3 2 2 2 1 1 1 1 0 0 0 0 0 0 0 0 0 0 0 0 0 0 0 0 0
7 7 7 8 8 8 8 8 7 6 5 5 6 6 5 4 3 3 3 3 3 2 1 1 0 0 0 0 0 0 0 0 0 0 0 0 0 0 0 0 0 0 0
6 4 4 5 5 4 3 3 3 4 3 4 5 4 4 3 3 3 4 3 3 3 3 2 1 0 0 0 0 0 0 0 0 0 0 0 0 0 0 0 0 0 0
2 1 1 1 1 1 1 1 1 2 2 3 3 3 3 4 4 4 4 4 3 3 3 3 2 1 1 0 0 0 0 0 0 0 0 0 0 0 0 0 0 0 0
0 0 0 0 0 0 0 0 0 1 1 2 3 3 4 5 5 4 3 3 2 2 2 3 3 2 1 0 0 0 0 0 0 0 0 0 0 0 0 0 0 0 0
0 0 0 0 0 0 0 0 0 0 1 2 3 3 5 6 6 4 2 1 1 1 1 2 3 3 1 0 0 0 0 0 0 0 0 0 0 0 0 0 0 0 0

GEFSMW_con_prob3kmehi_156.txt.gz
EHI
31 37 49 60 63 55 47 45 43 38 29 20 10 5 2 1 0 0 0 0 0 0 0 0 0 0 0 0 0 0 0 0 0 0 0 0 0 0 0 0 0 0 0
34 39 48 58 62 58 52 47 42 37 29 20 11 6 3 2 1 0 0 0 0 0 0 0 0 0 0 0 0 0 0 0 0 0 0 0 0 0 0 0 0 0 0
37 41 48 53 56 56 52 46 40 36 31 22 14 9 7 5 4 2 1 1 1 1 0 0 0 0 0 0 0 0 0 0 0 0 0 0 0 0 0 0 0 0 0
34 37 42 47 47 45 44 41 37 35 31 25 18 14 11 8 7 6 4 4 3 2 1 0 0 0 0 0 0 0 0 0 0 0 0 0 0 0 0 0 0 0 0
27 30 35 39 39 36 35 36 34 32 30 26 21 18 14 10 9 9 8 6 4 2 1 0 0 0 0 0 0 0 0 0 0 0 0 0 0 0 0 0 0 0 0
22 26 30 33 33 31 31 31 30 29 29 26 23 20 16 12 9 9 8 7 4 3 2 1 0 0 0 0 0 0 0 0 0 0 0 0 0 0 0 0 0 0 0
20 23 27 29 28 26 26 26 25 25 26 26 23 21 17 12 8 8 8 7 5 4 3 1 0 0 0 0 0 0 0 0 0 0 0 0 0 0 0 0 0 0 0
17 20 22 21 20 19 20 21 19 18 20 21 21 20 16 10 7 7 7 6 5 4 3 2 1 0 0 0 0 0 0 0 0 0 0 0 0 0 0 0 0 0 0
13 14 14 12 11 13 16 17 15 14 14 14 15 15 12 8 6 6 5 5 4 3 2 2 1 0 0 0 0 0 0 0 0 0 0 0 0 0 0 0 0 0 0
7 7 6 5 5 8 12 14 13 12 10 9 9 8 7 6 4 4 4 4 3 2 1 1 1 0 0 0 0 0 0 0 0 0 0 0 0 0 0 0 0 0 0
4 3 3 3 3 5 8 10 10 10 8 7 5 4 4 4 3 2 3 3 2 1 0 0 0 0 0 0 0 0 0 0 0 0 0 0 0 0 0 0 0 0 0
2 1 1 1 3 4 6 6 6 6 5 5 4 4 4 3 2 1 1 2 1 0 0 0 0 0 0 0 0 0 0 0 0 0 0 0 0 0 0 0 0 0 0
1 0 0 1 3 4 4 4 4 3 2 3 4 4 4 3 1 0 0 0 0 0 0 0 0 0 0 0 0 0 0 0 0 0 0 0 0 0 0 0 0 0 0
0 0 0 1 2 3 4 3 3 1 0 1 3 4 4 2 1 0 0 0 0 0 0 0 0 0 0 0 0 0 0 0 0 0 0 0 0 0 0 0 0 0 0
0 0 0 0 0 2 4 3 2 1 0 1 2 3 2 1 0 0 0 0 0 0 0 0 0 0 0 0 0 0 0 0 0 0 0 0 0 0 0 0 0 0 0
0 0 0 0 0 2 3 3 1 0 0 0 1 2 1 0 0 0 0 0 0 0 0 0 0 0 0 0 0 0 0 0 0 0 0 0 0 0 0 0 0 0 0
0 0 0 0 1 2 2 2 1 0 0 0 0 0 0 0 0 0 0 0 0 0 0 0 0 0 0 0 0 0 0 0 0 0 0 0 0 0 0 0 0 0 0
0 0 0 0 1 1 1 1 0 0 0 0 0 0 0 0 0 0 0 0 0 0 0 0 0 0 0 0 0 0 0 0 0 0 0 0 0 0 0 0 0 0 0
1 1 1 0 0 0 1 1 0 0 0 0 0 0 0 0 0 0 0 0 0 0 0 0 0 0 0 0 0 0 0 0 0 0 0 0 0 0 0 0 0 0 0
2 2 1 0 0 0 0 0 0 0 0 0 0 0 0 0 0 0 0 0 0 0 0 0 0 0 0 0 0 0 0 0 0 0 0 0 0 0 0 0 0 0 0
1 1 0 0 0 0 0 0 0 0 0 0 0 0 0 0 0 0 0 0 0 0 0 0 0 0 0 0 0 0 0 0 0 0 0 0 0 0 0 0 0 0 0
0 0 0 0 0 0 0 0 0 0 0 0 0 0 0 0 0 0 0 0 0 0 0 0 0 0 0 0 0 0 0 0 0 0 0 0 0 0 0 0 0 0 0
0 0 0 0 0 0 0 0 0 0 0 0 0 0 0 0 0 0 1 1 1 1 1 1 0 0 0 0 0 0 0 0 0 0 0 0 0 0 0 0 0 0 0
0 0 0 0 0 0 0 0 0 0 0 0 0 0 0 0 1 1 2 2 2 2 2 2 1 1 1 0 0 0 0 0 0 0 0 0 0 0 0 0 0 0 0
0 0 0 0 0 0 0 0 0 0 0 0 0 0 0 0 1 2 3 3 2 2 2 2 2 2 1 0 0 0 0 0 0 0 0 0 0 0 0 0 0 0 0
0 0 0 0 0 0 0 0 0 0 0 0 0 0 0 0 1 3 3 2 1 1 1 1 1 1 1 0 0 0 0 0 0 0 0 0 0 0 0 0 0 0 0

GEFSMW_con_prob3kmehi_162.txt.gz
EHI
44 52 56 54 53 56 60 58 56 54 49 43 39 33 26 18 10 6 5 5 5 5 3 2 3 2 1 0 1 1 1 1 2 3 3 3 3 2 2 1 0 0 0
47 55 62 63 63 64 64 61 58 57 56 50 42 35 27 19 12 9 10 8 6 5 3 2 2 1 0 0 0 1 2 2 2 3 3 3 3 1 1 0 0 0 0
45 56 68 71 70 68 67 65 64 64 63 57 46 37 29 21 14 13 14 14 10 6 5 3 1 0 1 1 1 1 3 3 2 2 2 2 2 1 0 0 0 0 0
39 51 66 69 67 65 63 65 67 68 67 60 49 40 31 22 16 15 17 16 13 9 6 4 3 3 2 1 1 3 3 2 2 2 1 1 1 0 0 0 0 0 0
33 43 56 62 62 60 59 61 66 69 67 61 53 44 34 26 21 19 19 18 15 10 6 5 6 6 4 3 5 6 4 3 3 4 3 2 1 0 0 0 0 0 0
31 38 49 57 60 58 57 58 61 63 62 58 52 44 38 33 28 24 22 20 16 12 9 7 9 9 6 7 10 10 7 5 5 6 7 6 3 1 1 0 0 0 1
30 35 44 53 55 54 53 52 51 52 53 51 45 40 38 36 31 26 21 17 14 14 14 12 13 11 7 8 11 12 10 9 8 7 7 7 5 2 1 1 1 1 2
30 33 40 44 45 45 45 43 42 42 42 41 38 35 34 33 29 24 19 14 12 14 15 14 13 12 8 8 10 11 11 11 10 6 6 8 5 2 1 1 2 2 2
30 32 36 38 36 36 36 34 34 34 33 33 32 32 30 26 23 21 19 17 14 13 13 12 11 11 9 9 10 10 10 12 10 7 7 9 6 3 2 2 3 3 2
30 31 34 35 33 32 30 28 29 30 29 29 29 27 24 19 16 17 19 18 15 11 10 10 8 8 8 8 9 9 11 12 11 8 8 8 8 7 5 4 5 5 4
29 29 30 31 31 29 27 27 29 29 27 26 24 21 18 13 12 14 15 15 12 9 8 7 7 5 5 6 8 8 9 10 10 8 7 6 8 9 7 5 4 4 4
24 24 26 28 30 30 28 27 27 26 24 22 19 17 14 11 10 10 11 11 10 8 7 6 5 4 3 5 6 7 7 7 6 6 6 5 5 5 5 4 2 2 2
21 22 25 29 31 30 28 26 24 23 22 19 15 13 11 10 9 8 8 8 8 7 6 6 5 4 3 4 5 6 6 6 6 6 7 5 3 2 2 2 0 0 1
20 22 26 29 30 28 24 23 22 22 21 18 13 10 9 8 7 6 6 6 6 6 5 6 6 5 3 3 5 6 7 6 7 8 8 5 2 0 0 0 0 1 2
19 20 23 25 25 23 21 20 21 21 21 17 12 10 9 6 5 4 5 5 5 5 5 6 6 5 3 3 3 6 7 7 7 8 6 3 1 0 0 0 0 1 2
18 16 17 19 20 20 20 20 20 20 19 15 12 12 10 6 4 4 5 5 6 6 6 6 5 4 3 1 1 3 6 7 6 6 4 1 0 0 0 0 0 0 1
17 14 13 14 16 18 20 20 19 18 16 13 12 12 10 6 3 4 5 5 6 8 7 6 5 4 3 1 0 1 4 4 4 4 3 1 0 0 0 0 0 0 0
16 15 14 14 17 19 21 21 19 17 15 12 11 11 9 5 3 4 5 5 6 7 5 4 4 4 3 1 0 1 2 3 4 4 3 2 1 0 0 0 0 0 0
14 14 14 15 18 22 24 23 21 19 15 11 9 8 7 4 3 4 5 6 6 6 3 2 3 4 2 0 0 1 2 4 5 6 3 1 1 0 0 0 0 0 0
13 13 13 13 15 19 21 21 20 19 16 11 7 6 5 5 5 5 6 6 8 7 5 2 2 2 2 0 0 1 2 4 6 6 4 2 1 0 0 0 0 0 0
12 12 11 11 11 13 15 15 15 15 13 10 7 5 6 6 6 6 7 8 9 9 7 4 2 1 1 0 0 0 1 2 3 5 5 3 1 0 0 0 0 0 0
13 11 11 11 12 13 11 9 8 9 9 8 6 4 4 4 4 4 6 9 9 8 6 4 2 2 1 1 0 0 0 0 1 3 4 2 1 0 0 0 0 0 0
13 11 10 11 12 13 11 8 6 7 7 6 4 2 1 1 1 2 4 7 7 6 4 4 4 5 4 3 2 1 0 0 1 2 2 1 0 0 0 0 0 0 0
13 12 10 9 9 9 9 7 6 6 6 4 3 1 0 0 0 1 3 4 4 4 4 5 5 5 4 4 4 3 2 1 0 1 1 0 0 0 0 0 0 0 0
12 11 8 6 5 5 5 5 5 5 3 2 1 0 0 0 0 1 2 3 3 2 3 3 3 4 3 3 3 4 3 2 0 0 0 0 0 0 0 0 0 0 0
12 9 6 4 4 4 3 4 4 3 2 1 0 0 0 0 0 1 2 2 2 1 1 1 2 3 3 2 1 2 2 1 0 0 0 0 0 0 0 0 0 0 0

GEFSMW_con_prob3kmehi_168.txt.gz
EHI
96 97 97 97 98 99 98 95 93 95 91 79 68 60 51 42 36 39 49 51 42 31 23 24 30 27 25 24 21 19 16 10 6 4 1 0 0 2 4 4 2 2 3
96 97 98 97 97 97 97 95 94 94 92 83 73 65 57 48 41 44 53 54 46 35 27 28 32 30 29 29 26 22 16 10 7 7 3 1 0 1 2 3 3 4 4
94 96 96 95 95 96 97 95 93 93 92 87 79 71 67 60 52 53 57 55 48 40 33 31 34 33 32 32 28 23 16 8 8 9 6 3 1 0 0 1 4 7 7
89 92 93 93 94 94 94 92 92 91 90 87 82 79 75 69 61 59 58 54 48 43 37 34 35 35 32 31 29 25 19 11 8 9 9 6 3 1 0 0 3 7 9
81 87 91 92 92 89 87 87 87 86 85 83 82 82 78 71 65 62 59 52 48 44 39 36 38 38 35 32 33 33 26 18 12 10 10 9 6 3 1 0 2 5 6
70 81 88 88 86 81 81 82 80 78 79 78 79 80 77 71 67 65 58 49 46 44 38 36 40 41 40 38 39 38 30 23 19 15 13 12 9 3 1 1 1 3 4
61 73 80 79 77 76 78 78 75 74 73 74 77 76 72 68 65 60 52 45 41 39 38 38 40 42 42 41 41 37 30 26 24 19 16 15 12 6 2 1 1 3 3
52 62 71 73 73 74 75 75 73 72 70 71 73 70 65 61 57 50 43 39 36 35 37 40 39 40 40 39 39 36 30 28 26 21 19 19 14 9 3 2 3 3 3
44 52 64 71 73 74 73 71 71 70 68 67 64 61 57 56 53 47 39 36 35 34 36 37 34 34 37 38 38 35 30 29 27 24 23 21 16 10 5 4 6 5 3
36 44 57 67 70 69 68 67 65 64 62 58 54 50 49 52 53 47 40 38 37 36 35 33 30 30 35 37 36 32 27 24 24 25 25 22 17 12 8 7 9 8 6
34 40 51 59 60 59 60 61 59 56 53 50 47 44 45 47 48 44 40 38 38 37 35 31 26 26 29 30 29 25 21 17 17 20 21 19 17 16 13 11 10 10 8
39 43 49 52 51 51 52 53 52 49 45 43 43 43 42 43 43 39 36 34 32 31 28 23 19 19 20 22 21 17 15 13 13 14 16 15 14 15 15 12 9 8 7
44 47 48 47 46 46 46 46 44 41 38 37 39 40 40 39 38 34 31 29 26 23 19 15 14 14 15 16 15 14 13 14 14 13 14 13 12 13 14 12 9 7 5
47 46 45 42 41 40 39 38 36 33 34 36 36 37 36 35 33 32 29 25 20 15 13 11 11 12 12 10 11 12 12 14 15 14 14 13 12 12 12 10 8 6 5
46 43 39 37 35 34 32 31 31 32 34 36 36 35 34 30 27 26 25 22 16 12 10 9 9 9 8 6 7 9 10 11 12 13 12 11 10 9 7 6 5 4 4
43 41 36 33 31 30 28 28 30 32 34 34 34 33 31 27 21 19 21 20 15 12 10 9 7 7 5 4 3 5 7 7 8 8 7 6 5 4 2 2 1 1 2
45 42 37 34 32 30 27 25 27 30 32 31 29 27 25 22 18 16 18 17 14 11 9 9 8 7 5 2 1 2 4 5 5 4 3 2 1 0 0 0 0 0 1
49 46 40 35 34 31 26 24 25 26 26 26 24 21 17 16 16 17 17 16 13 9 7 8 10 9 4 1 0 0 2 3 2 1 1 0 0 0 0 0 0 0 0
48 44 38 34 33 31 29 28 27 25 23 22 21 18 15 14 15 16 15 14 12 8 6 6 8 6 2 0 0 0 0 1 0 0 0 0 0 0 0 0 0 1 1
37 34 31 31 30 31 32 31 28 24 21 19 19 18 16 14 14 14 13 12 9 7 4 3 3 2 1 0 0 0 0 0 0 0 0 0 0 0 0 0 0 0 0
26 25 25 26 27 28 29 28 24 21 19 17 16 15 14 13 12 13 12 9 6 3 1 1 0 0 0 0 0 0 0 0 0 0 0 0 0 0 0 0 0 0 0
22 23 24 24 24 25 24 21 17 13 13 13 11 9 9 8 8 9 8 5 2 1 0 0 0 0 0 0 0 0 0 0 0 0 0 0 0 0 0 0 0 0 0
20 21 22 21 21 20 17 14 10 7 7 8 8 6 6 5 5 5 3 1 0 0 1 1 0 0 0 0 0 0 0 0 0 0 0 0 0 0 0 0 0 0 0
17 18 18 18 17 14 11 8 7 5 5 6 5 4 4 3 3 2 1 0 0 0 1 1 0 0 0 0 0 0 1 1 0 0 0 0 0 0 0 0 0 0 0
16 16 18 17 14 10 7 6 7 6 6 5 4 3 2 1 1 0 0 0 0 0 1 1 0 0 0 0 0 1 2 2 0 0 1 1 0 0 0 0 0 0 0
16 17 18 17 13 8 5 5 7 6 5 4 3 2 1 0 0 0 0 0 0 0 0 0 0 0 0 0 0 1 1 1 0 1 2 2 1 0 0 0 0 0 0

GEFSMW_con_prob3kmehi_174.txt.gz
EHI
63 71 80 88 92 92 89 87 80 70 62 51 37 25 16 12 12 13 13 14 15 15 12 7 2 0 0 0 0 0 0 0 0 0 0 0 0 0 0 0 0 0 0
71 76 83 90 95 95 93 90 83 74 64 51 33 21 14 12 12 13 14 14 16 16 13 7 3 1 0 0 0 0 0 0 0 0 0 0 0 0 0 0 0 0 0
81 83 87 92 96 98 96 93 86 76 64 51 36 24 17 15 14 14 14 14 15 15 12 7 4 2 0 0 0 0 0 0 0 0 0 0 0 0 0 0 0 0 0
86 87 89 90 93 95 95 92 86 77 66 55 45 34 26 21 16 14 14 13 13 14 12 9 5 2 1 1 1 1 1 0 0 0 0 0 0 0 0 0 0 0 0
85 87 87 85 85 88 89 88 84 76 67 60 51 38 28 21 14 11 12 12 13 14 14 11 7 4 3 3 2 2 2 1 1 1 0 0 0 0 0 0 0 0 0
83 84 84 81 79 79 80 81 78 71 63 58 49 37 26 17 11 9 10 12 14 14 14 12 10 6 4 4 3 3 3 3 2 2 1 0 0 0 0 0 0 0 0
79 79 78 76 73 72 73 76 75 68 61 54 46 37 28 18 13 10 9 10 12 13 14 14 12 8 5 4 3 3 3 3 3 3 2 1 0 0 0 0 0 0 0
72 71 69 66 65 65 68 72 72 67 60 53 44 35 28 20 14 10 8 8 9 11 13 14 12 9 6 4 4 3 3 3 3 3 3 2 1 0 0 0 0 0 0
63 61 58 58 58 61 65 68 68 63 56 48 38 29 24 20 15 10 7 6 6 7 8 10 9 7 5 4 3 3 3 3 3 3 3 3 2 1 1 0 0 0 0
55 53 51 53 56 58 60 61 60 56 49 39 29 22 20 18 15 10 7 6 3 2 3 4 5 4 3 3 3 3 2 2 2 2 2 2 2 2 1 0 0 0 0
49 48 49 52 54 53 52 52 52 48 41 31 23 19 18 17 14 11 9 7 3 2 2 2 3 3 3 3 3 2 1 1 1 1 1 1 1 1 1 0 0 0 0
45 47 50 52 51 47 44 43 42 38 33 26 20 18 16 14 12 10 9 8 5 3 2 1 2 2 3 3 3 2 1 1 1 1 0 0 0 0 0 0 0 0 0
44 45 46 46 43 40 38 35 31 28 27 24 20 17 14 11 10 9 8 7 6 3 2 1 1 1 1 2 2 2 2 2 2 2 1 0 0 0 0 0 0 0 0
38 37 37 36 34 33 31 28 24 22 22 21 19 17 14 11 9 9 7 7 6 5 3 2 1 0 0 1 1 1 2 2 2 2 1 0 0 0 0 0 0 0 0
32 31 31 30 29 29 27 25 22 20 21 21 19 17 14 11 10 10 8 7 6 6 4 3 2 1 0 0 0 0 1 1 1 1 0 0 0 0 0 0 0 0 0
33 31 29 27 27 26 25 24 22 21 21 22 21 17 13 11 10 10 9 8 6 6 5 3 2 1 0 0 0 0 0 0 0 0 0 0 0 0 0 0 0 0 0
35 31 27 25 24 24 22 20 19 20 21 22 19 15 11 11 11 10 9 7 6 5 3 2 1 1 0 0 0 0 0 0 0 0 0 0 0 0 0 0 0 0 0
30 26 24 23 23 23 21 18 17 18 19 19 16 12 10 10 10 9 7 5 4 3 2 1 1 0 0 0 0 0 0 0 0 0 0 0 0 0 0 0 0 0 0
21 21 20 22 23 22 21 18 16 17 17 15 12 10 8 8 6 5 4 3 3 2 1 1 1 0 0 0 0 0 0 0 0 0 0 0 0 0 0 0 0 0 0
15 16 18 19 19 18 17 16 16 16 14 12 9 6 4 3 2 1 1 2 2 1 0 0 0 0 0 0 0 0 0 0 0 0 0 0 0 0 0 0 0 0 0
12 13 15 15 13 11 12 14 14 13 10 7 4 2 1 1 0 0 0 1 1 0 0 0 0 0 0 0 0 0 0 0 0 0 0 0 0 0 0 0 0 0 0
9 10 12 10 7 6 8 10 9 8 6 4 1 0 0 0 0 0 0 0 0 0 0 0 0 0 0 0 0 0 0 0 0 0 0 0 0 0 0 0 0 0 0
7 6 6 5 3 3 4 4 4 4 4 2 1 0 0 0 0 0 0 0 0 0 0 0 0 0 0 0 0 0 0 0 0 0 0 0 0 0 0 0 0 0 0
5 4 3 3 1 1 1 1 1 2 2 1 0 0 0 0 0 0 0 0 0 0 0 0 0 0 0 0 0 0 0 0 0 0 0 0 0 0 0 0 0 0 0
4 4 3 2 1 0 1 0 1 1 1 0 0 0 0 0 0 0 0 0 0 0 0 0 0 0 0 0 0 0 0 0 0 0 0 0 0 0 0 0 0 0 0
4 4 3 2 0 0 1 0 0 1 0 0 0 0 0 0 0 0 0 0 0 0 0 0 0 0 0 0 0 0 0 0 0 0 0 0 0 0 0 0 0 0 0

GEFSMW_con_prob3kmehi_180.txt.gz
EHI
14 19 27 34 37 33 29 26 22 15 8 5 4 2 2 2 1 0 0 0 0 1 1 0 0 0 0 0 0 0 0 0 0 0 0 0 0 0 0 0 0 0 0
20 25 32 39 41 37 33 31 27 19 12 7 5 3 2 2 1 0 0 0 1 1 1 1 1 0 0 0 0 0 0 0 0 0 0 0 0 0 0 0 0 0 0
31 34 40 46 48 45 40 37 31 24 18 11 8 7 6 4 3 2 2 2 3 2 2 2 2 1 0 0 0 0 0 0 0 0 0 0 0 0 0 0 0 0 0
37 40 46 52 55 53 47 40 34 28 23 17 13 12 12 9 7 5 3 3 4 4 3 2 2 1 0 0 0 0 0 0 0 0 0 0 0 0 0 0 0 0 0
35 39 45 50 55 57 53 46 40 33 27 23 20 18 15 11 9 6 4 3 4 4 4 3 2 1 0 0 0 0 0 0 0 0 0 0 0 0 0 0 0 0 0
33 35 41 47 51 55 57 55 49 39 31 28 26 22 16 12 9 8 5 3 2 3 3 2 2 1 0 0 0 0 0 0 1 1 1 1 0 0 0 0 0 0 0
31 35 41 47 50 53 56 56 53 44 36 33 30 24 17 14 11 7 5 3 1 1 2 1 1 1 0 0 0 0 0 0 1 2 2 2 1 1 0 0 0 0 0
30 34 41 46 48 50 50 52 52 45 39 37 31 23 17 15 12 7 3 1 0 0 0 0 0 0 0 0 0 0 0 0 1 1 2 2 2 2 1 0 0 0 0
26 30 36 41 43 44 48 51 50 44 39 38 32 22 17 16 13 9 4 2 1 0 0 0 0 0 1 1 1 0 0 0 0 0 1 1 1 2 2 1 0 0 0
23 27 32 35 38 42 45 48 48 43 40 39 33 24 17 15 13 9 5 3 2 1 0 0 0 0 1 2 2 1 0 0 0 0 0 0 0 1 2 1 0 0 0
22 26 30 32 36 39 41 43 43 41 39 37 33 26 18 14 11 7 4 3 2 1 0 0 0 0 1 3 3 1 1 1 0 0 0 0 0 0 1 1 0 0 0
23 25 28 32 36 38 38 39 39 37 35 34 30 25 18 13 10 7 4 4 3 1 1 1 1 0 1 2 3 3 2 2 1 1 1 0 0 0 0 0 0 0 0
20 21 24 28 33 36 36 36 35 33 32 30 25 20 16 12 10 8 6 5 4 3 3 3 2 1 0 1 2 2 2 2 2 2 1 0 0 0 0 0 0 0 0
19 19 20 24 30 33 33 33 32 30 27 24 18 14 13 11 10 9 8 7 6 6 6 5 4 2 1 0 1 1 1 1 1 1 1 0 0 0 0 0 0 0 0
19 18 20 23 28 30 30 29 28 25 21 17 12 9 10 10 10 10 9 7 6 6 6 6 5 3 1 0 0 0 0 0 0 0 0 0 0 0 0 0 0 0 0
17 17 19 21 24 26 26 25 24 20 16 13 9 7 7 9 9 10 9 7 6 6 6 6 6 4 1 0 0 0 0 0 0 0 0 0 0 0 0 0 0 0 0
15 16 17 17 18 20 21 21 20 17 14 11 8 6 6 7 8 9 8 6 5 5 6 6 6 4 1 0 0 0 0 0 0 0 0 0 0 0 0 0 0 0 0
14 15 15 14 14 15 16 16 16 15 12 9 6 5 6 7 7 7 7 6 5 5 5 5 4 3 1 0 0 0 0 0 0 0 0 0 0 0 0 0 0 0 0
11 12 12 12 13 14 13 13 13 12 10 7 5 5 7 7 6 5 4 4 4 4 4 4 3 3 2 1 0 0 0 0 0 0 0 0 0 0 0 0 0 0 0
6 7 8 9 11 12 12 11 10 8 7 5 4 5 7 7 5 3 2 2 2 3 3 3 3 3 2 1 0 0 0 0 0 0 0 0 0 0 0 0 0 0 0
3 3 4 5 6 7 8 8 8 7 5 4 4 4 5 4 2 1 1 1 1 1 2 2 3 3 2 1 0 0 0 0 0 0 0 0 0 0 0 0 0 0 0
2 1 1 1 2 4 5 5 6 6 5 4 4 3 2 1 0 0 0 0 0 0 1 1 1 2 1 0 0 0 0 0 0 0 0 0 0 0 0 0 0 0 0
1 0 0 0 1 2 3 4 5 6 6 5 3 2 1 0 0 0 0 0 0 0 0 0 0 0 0 0 0 0 0 0 0 0 0 0 0 0 0 0 0 0 0
1 0 0 0 0 1 2 2 3 4 5 4 2 1 0 0 0 0 0 0 0 0 0 0 0 0 0 0 0 0 0 0 0 0 0 0 0 0 0 0 0 0 0
1 0 0 0 0 0 1 1 1 2 3 2 1 0 0 0 0 0 0 0 0 0 0 0 0 0 0 0 0 0 0 0 0 0 0 0 0 0 0 0 0 0 0
0 0 0 0 0 0 0 0 0 1 2 1 0 0 0 0 0 0 0 0 0 0 0 0 0 0 0 0 0 0 0 0 0 0 0 0 0 0 0 0 0 0 0

GEFSMW_con_prob3kmehi_186.txt.gz
EHI
32 34 31 25 26 31 36 36 31 25 22 21 21 17 10 6 4 3 2 2 3 5 5 3 2 2 1 1 0 0 0 0 0 0 0 0 0 0 0 0 0 0 0
38 42 42 38 37 41 42 40 34 29 24 22 21 16 9 5 3 3 3 4 6 7 6 4 3 3 3 1 0 1 0 0 0 0 0 0 0 0 0 0 0 0 0
41 50 56 53 51 51 48 44 41 37 30 26 23 19 11 5 2 2 5 7 9 9 8 5 3 3 3 2 2 3 2 0 0 0 1 1 0 0 0 0 0 0 0
34 46 57 59 57 54 48 45 45 44 39 33 29 26 19 10 4 3 5 7 8 9 9 7 5 4 3 3 3 4 4 2 1 1 1 1 1 1 1 0 0 0 0
25 34 46 52 54 51 46 44 47 50 47 40 36 35 28 17 10 6 6 7 7 7 7 7 8 6 4 3 4 6 8 6 4 1 1 2 2 3 2 1 0 0 0
23 28 38 45 47 48 46 46 51 55 52 47 44 42 37 27 19 14 12 11 9 6 4 5 8 8 5 5 7 10 11 10 7 4 3 3 3 4 3 1 0 0 0
24 29 38 44 46 49 51 53 57 59 57 54 51 47 41 33 25 20 16 13 10 7 3 3 6 6 5 7 11 15 14 13 12 9 8 7 6 5 4 2 1 0 1
26 29 36 41 46 51 55 58 61 60 57 53 50 46 41 34 27 21 15 11 8 6 5 4 4 4 5 8 15 18 17 16 15 12 12 11 9 8 8 7 4 1 1
26 26 29 35 40 46 51 55 59 59 53 46 43 41 39 35 29 23 16 10 8 6 6 5 4 6 9 12 16 18 16 15 14 13 13 14 13 12 11 11 8 4 2
25 24 27 33 36 40 46 49 54 56 51 44 39 36 36 35 31 26 20 14 10 8 8 9 9 11 13 13 14 14 12 12 12 12 13 14 15 13 11 11 9 7 4
24 24 30 36 38 40 44 48 49 50 49 45 40 36 35 34 30 27 24 20 15 12 12 14 15 15 14 13 12 10 9 9 9 9 9 10 11 10 10 10 9 8 7
23 27 34 38 38 40 43 46 46 46 45 44 41 38 37 37 31 26 24 22 20 16 15 17 18 16 14 13 11 9 7 7 6 5 5 5 5 6 8 10 11 11 11
28 32 37 38 38 39 40 42 44 44 42 41 39 36 34 34 29 23 21 21 20 19 18 19 19 17 14 11 9 8 7 6 5 4 3 3 2 3 5 7 10 11 10
37 38 40 41 40 40 40 41 42 41 40 39 36 30 26 26 25 20 18 19 19 18 17 17 16 14 11 9 7 7 8 8 6 4 3 2 1 0 1 3 5 6 6
42 42 44 45 43 41 41 41 40 38 38 37 33 26 22 21 22 18 16 18 18 15 14 13 13 11 8 6 5 6 8 9 7 4 2 1 0 0 0 1 2 3 3
42 44 47 46 42 40 40 39 37 36 37 36 32 26 22 21 18 14 13 16 17 14 12 12 12 11 7 3 2 4 6 7 6 4 2 1 0 0 0 0 1 1 1
40 43 46 44 41 39 38 35 34 35 36 34 29 24 22 19 15 11 11 13 14 13 12 11 10 8 4 1 0 1 3 4 3 3 2 1 0 0 0 0 0 0 1
42 43 44 41 38 36 33 30 30 32 31 27 23 21 18 17 14 12 11 11 11 12 11 9 7 5 2 0 0 0 1 1 1 1 1 1 1 1 1 0 0 0 0
46 45 42 38 33 30 28 26 24 24 23 21 20 19 17 17 16 14 12 10 11 11 10 8 6 3 2 0 0 0 1 0 0 1 1 1 0 0 0 0 0 0 0
49 46 40 34 30 27 27 26 22 19 17 18 18 18 18 17 17 14 12 11 11 10 8 7 5 3 2 0 0 0 1 1 1 2 2 1 0 0 0 0 0 1 1
50 47 40 34 29 27 26 24 19 16 15 15 16 17 17 16 15 13 11 10 9 7 6 5 4 3 2 0 0 0 1 2 2 3 2 1 0 0 0 0 0 0 0
44 42 38 32 28 23 20 17 14 13 13 13 14 15 16 15 13 11 10 8 6 4 4 4 3 2 1 0 0 0 1 1 2 3 2 1 0 0 0 0 0 0 0
34 32 28 25 21 16 12 11 10 11 12 12 12 12 13 13 11 9 7 4 2 1 1 1 1 1 0 0 0 0 0 0 1 2 1 0 0 0 0 0 0 0 0
26 23 19 15 11 7 7 7 7 9 10 10 10 10 10 9 7 5 2 1 1 0 0 0 0 0 0 0 0 0 0 0 0 0 0 0 0 0 0 0 0 0 0
19 17 13 8 5 4 4 4 5 7 8 9 9 8 7 6 4 2 0 0 1 0 0 0 0 0 0 0 0 0 0 0 0 0 0 0 0 0 0 0 0 0 0
15 13 9 6 4 3 3 4 4 5 7 8 8 7 7 5 3 1 0 0 1 0 0 0 0 0 0 0 0 0 0 0 0 0 0 0 0 0 0 0 0 0 0